Terug naar catalogus

QIANFAN-43

ActiefCommunicatiePO
NORAD 62244·PAYLOAD·🇨🇳 China

Gelanceerd Dec 5, 2024 vanaf Taiyuan Satellite Launch Center

Loading…

Volgende Passages (komende 24 uur)

TLE

VersSource: Space-Track

Epoch: Sep 14, 2026, 20:45 UTC

1 62244U 24232H   26257.86469133  .00000099  00000-0  13414-3 0  9997
2 62244  89.0162  13.5586 0017380 117.3502 242.9420 13.51028779105149

Volg QIANFAN-43 in realtime met AllMySat

Download on the App Store